Location: East Guldeford
(50.9500°N, 0.7500°E)
Time: 09:48:27
(UTC+00:00)

ERBS - Pass Details

Date: 12 May 2021
Orbit: 399 x 417 km, 57.0° (Epoch: 16 June)

Event Time Altitude Azimuth Distance (km) Brightness Sun altitude
Rises 22:20:41 0° 301° (WNW) 2,354 6.9 -17.7°
Reaches altitude 10° 22:22:46 10° 302° (WNW) 1,492 5.8 -17.9°
Maximum altitude 22:26:06 86° 30° (NNE) 423 2.2 -18.1°
Enters shadow 22:26:44 56° 115° (ESE) 502 2.3 -18.1°
